This is the latest recevied weather packets stored in our database for station/object W4CKA. If no packets are shown the sender has not sent any weather packets the latest 10 day(s).
| Time | Temp. | Humidity | Pressure | Rain* | Wind** | Luminosity | Snow |
|---|---|---|---|---|---|---|---|
| 1777889088 | 2.78° C | 97% | 1059.5 hPa | 0 mm | - | 0 W/m² | - |
| 1777888486 | 3.89° C | 98% | 1059.3 hPa | 0 mm | - | 0 W/m² | - |
| 1777887886 | 3.89° C | 98% | 1059.5 hPa | 0 mm | - | 0 W/m² | - |
| 1777887283 | 3.33° C | 98% | 1059.7 hPa | 0 mm | - | 0 W/m² | - |
| 1777886682 | 2.78° C | 98% | 1059.5 hPa | 0 mm | - | 0 W/m² | - |
| 1777886077 | 2.78° C | 97% | 1059.7 hPa | 0 mm | - | 0 W/m² | - |
| 1777885472 | 3.33° C | 97% | 1059.6 hPa | 0 mm | - | 0 W/m² | - |
| 1777884868 | 3.33° C | 97% | 1059.5 hPa | 0 mm | - | 0 W/m² | - |
| 1777884267 | 3.33° C | 97% | 1059.5 hPa | 0 mm | - | 0 W/m² | - |
| 1777883666 | 3.33° C | 97% | 1059.5 hPa | 0 mm | - | 0 W/m² | - |
| 1777883065 | 3.33° C | 96% | 1059.7 hPa | 0 mm | - | 0 W/m² | - |
| 1777882464 | 3.33° C | 96% | 1059.6 hPa | 0 mm | - | 0 W/m² | - |
| 1777881862 | 3.89° C | 96% | 1059.3 hPa | 0 mm | - | 0 W/m² | - |
| 1777881262 | 3.89° C | 96% | 1059.2 hPa | 0 mm | - | 0 W/m² | - |
| 1777880657 | 3.89° C | 95% | 1059.5 hPa | 0 mm | - | 0 W/m² | - |
| 1777880053 | 3.89° C | 95% | 1059.5 hPa | 0 mm | - | 0 W/m² | - |
| 1777879448 | 3.89° C | 94% | 1059.5 hPa | 0 mm | - | 0 W/m² | - |
| 1777878842 | 4.44° C | 92% | 1059.4 hPa | 0 mm | - | 0 W/m² | - |
| 1777878242 | 5° C | 94% | 1059.3 hPa | 0 mm | - | 0 W/m² | - |
| 1777877640 | 5° C | 94% | 1059.6 hPa | 0 mm | - | 0 W/m² | - |
| 1777877035 | 4.44° C | 95% | 1059.5 hPa | 0 mm | - | 0 W/m² | - |
| 1777876430 | 4.44° C | 94% | 1059.5 hPa | 0 mm | - | 0 W/m² | - |
| 1777875828 | 4.44° C | 93% | 1059.3 hPa | 0 mm | - | 0 W/m² | - |
| 1777875227 | 4.44° C | 92% | 1059.3 hPa | 0 mm | - | 0 W/m² | - |
| 1777874625 | 5° C | 91% | 1059.6 hPa | 0 mm | - | 0 W/m² | - |
* Rain latest hour (hover to see other rain measurements)
** Current wind speed in m/s (hover to see current wind gust speed)